TimeCST,TemperatureF,Dew PointF,Humidity,Sea Level PressureIn,VisibilityMPH,Wind Direction,Wind SpeedMPH,Gust SpeedMPH,PrecipitationIn,Events,Conditions,WindDirDegrees,DateUTC
12:53 AM,25.0,17.1,72,30.38,10.0,NNE,11.5,-,N/A,,Clear,20,2013-01-15 06:53:00
1:53 AM,24.1,17.1,75,30.36,10.0,NNE,11.5,-,N/A,,Clear,20,2013-01-15 07:53:00
2:53 AM,24.1,17.1,75,30.35,10.0,North,9.2,-,N/A,,Clear,10,2013-01-15 08:53:00
3:53 AM,23.0,17.1,78,30.35,10.0,North,10.4,-,N/A,,Clear,10,2013-01-15 09:53:00
5:53 AM,23.0,17.1,78,30.33,10.0,North,9.2,-,N/A,,Clear,10,2013-01-15 11:53:00
6:53 AM,23.0,17.1,78,30.32,10.0,NNE,11.5,-,N/A,,Clear,20,2013-01-15 12:53:00
7:53 AM,24.1,17.1,75,30.33,10.0,North,9.2,-,N/A,,Clear,10,2013-01-15 13:53:00
8:53 AM,26.1,18.0,71,30.34,10.0,NNE,6.9,-,N/A,,Clear,30,2013-01-15 14:53:00
9:53 AM,28.0,19.0,69,30.29,10.0,NNE,11.5,-,N/A,,Clear,30,2013-01-15 15:53:00
10:53 AM,30.0,17.1,59,30.27,10.0,NNE,12.7,-,N/A,,Overcast,30,2013-01-15 16:53:00
11:53 AM,30.9,17.1,57,30.31,10.0,North,5.8,-,N/A,,Overcast,350,2013-01-15 17:53:00
12:53 PM,30.9,17.1,57,30.27,10.0,North,8.1,-,N/A,,Overcast,350,2013-01-15 18:53:00
1:23 PM,30.2,19.4,64,30.20,2.0,NNE,11.5,-,0.00,Snow,Light Snow,20,2013-01-15 19:23:00
1:34 PM,30.2,19.4,64,30.20,4.0,NNE,12.7,-,0.00,Snow,Light Snow,20,2013-01-15 19:34:00
1:53 PM,30.9,19.0,61,30.22,10.0,NNE,6.9,-,0.00,,Overcast,30,2013-01-15 19:53:00
2:35 PM,30.2,19.4,64,30.21,2.0,ENE,5.8,-,0.01,Snow,Light Snow,60,2013-01-15 20:35:00
2:53 PM,30.0,21.0,69,30.22,2.5,ENE,6.9,-,0.01,Snow,Light Snow,60,2013-01-15 20:53:00
3:11 PM,30.2,21.2,69,30.17,1.5,NE,8.1,-,0.00,Snow,Light Snow,40,2013-01-15 21:11:00
3:23 PM,30.2,21.2,69,30.18,2.5,NNE,8.1,-,0.00,Snow,Light Snow,30,2013-01-15 21:23:00
3:28 PM,30.2,21.2,69,30.18,3.0,NNE,5.8,-,0.00,Snow,Light Snow,20,2013-01-15 21:28:00
3:53 PM,30.0,21.9,72,30.20,7.0,North,6.9,-,0.00,Snow,Light Snow,10,2013-01-15 21:53:00
4:53 PM,30.0,21.9,72,30.20,8.0,NNE,6.9,-,0.00,,Overcast,20,2013-01-15 22:53:00
5:53 PM,30.9,21.0,67,30.19,10.0,North,6.9,-,N/A,,Overcast,360,2013-01-15 23:53:00
6:07 PM,30.2,21.2,69,30.17,10.0,North,5.8,-,N/A,,Overcast,360,2013-01-16 00:07:00
6:14 PM,30.2,21.2,69,30.17,10.0,North,6.9,-,N/A,,Overcast,360,2013-01-16 00:14:00
6:38 PM,30.2,21.2,69,30.17,10.0,North,6.9,-,N/A,,Overcast,360,2013-01-16 00:38:00
6:53 PM,32.0,19.0,59,30.19,10.0,North,12.7,-,N/A,,Overcast,10,2013-01-16 00:53:00
7:53 PM,30.9,21.0,67,30.19,6.0,North,12.7,-,0.00,Snow,Light Snow,350,2013-01-16 01:53:00
8:53 PM,30.0,19.9,66,30.17,10.0,North,11.5,-,0.00,,Overcast,360,2013-01-16 02:53:00
9:53 PM,30.9,19.9,64,30.18,10.0,North,6.9,-,N/A,,Overcast,360,2013-01-16 03:53:00
10:53 PM,30.9,19.9,64,30.14,10.0,NNE,8.1,-,N/A,,Overcast,30,2013-01-16 04:53:00
11:53 PM,30.9,21.0,67,30.16,10.0,North,6.9,-,N/A,,Overcast,350,2013-01-16 05:53:00